Retour au catalogue

FENGYUN 1C DEB

ActifSSO
NORAD 30395·DEBRIS·🇨🇳 China

Lancé May 10, 1999 depuis Taiyuan Satellite Launch Center

Loading…

Prochains Passages (prochaines 24 heures)

TLE

FraisSource: Space-Track

Époque: Sep 14, 2026, 06:38 UTC

1 30395U 99025ADJ 26257.27676222  .00000414  00000-0  29471-3 0  9996
2 30395  98.9212 269.8595 0159345 346.8476  74.0450 13.97035155998704

Suivez FENGYUN 1C DEB en temps réel avec AllMySat

Download on the App Store